Location: Melbourne
(37.8170°S, 144.9670°E)
Time: 03:00:20
(UTC+11:00)

Transit 2A - All Passes

Search period start: 06 March 2015 00:00
Search period end: 16 March 2015 00:00
Orbit: 592 x 970 km, 66.7° (Epoch: 04 March)

Date Brightness Start Highest point End Pass type
(mag) Time Alt. Az. Time Alt. Az. Time Alt. Az.
06 Mar - 06:56:42 10° NNE 06:59:51 17° ENE 07:03:01 10° ESE daylight
06 Mar - 08:37:57 10° NW 08:42:48 48° WSW 08:47:17 10° SSE daylight
06 Mar - 17:25:44 10° SSW 17:30:11 84° ESE 17:34:54 10° NNE daylight
07 Mar - 06:25:17 10° ENE 06:26:12 11° ENE 06:27:27 10° E visible
07 Mar - 08:04:00 10° NNW 08:09:02 74° WSW 08:13:40 10° SSE daylight
07 Mar - 16:52:05 10° SSW 16:56:25 53° ESE 17:01:02 10° NE daylight
07 Mar - 18:36:55 10° WSW 18:39:17 14° WNW 18:41:30 10° NW daylight
08 Mar - 07:30:17 10° NNW 07:35:19 72° ENE 07:39:56 10° SSE daylight
08 Mar - 09:16:28 10° W 09:18:58 14° SW 09:21:13 10° SSW daylight
08 Mar - 16:18:34 10° S 16:22:37 34° SE 16:26:54 10° ENE daylight
08 Mar - 18:02:09 10° WSW 18:05:39 21° WNW 18:09:10 10° NNW daylight
09 Mar - 06:56:49 10° N 07:01:37 46° ENE 07:06:04 10° SE daylight
09 Mar - 08:41:25 10° W 08:44:59 20° SW 08:48:17 10° S daylight
09 Mar - 15:45:12 10° S 15:48:45 23° SE 15:52:31 10° ENE daylight
09 Mar - 17:27:55 10° SW 17:31:59 33° WNW 17:36:14 10° N daylight
10 Mar - 06:23:37 10° N 06:27:55 30° ENE 06:32:01 10° SE visible
10 Mar - 08:06:50 10° WNW 08:11:05 28° SW 08:15:02 10° S daylight
10 Mar - 15:12:05 10° S 15:14:48 16° SE 15:17:45 10° E daylight
10 Mar - 16:53:55 10° SW 16:58:18 53° WNW 17:02:57 10° N daylight
11 Mar - 05:50:48 10° NNE 05:54:15 19° ENE 05:57:40 10° ESE visible
11 Mar - 07:32:33 10° NW 07:37:15 42° WSW 07:41:35 10° SSE daylight
11 Mar - 14:39:37 10° SSE 14:40:48 11° SE 14:42:12 10° ESE daylight
11 Mar - 16:20:06 10° SSW 16:24:35 85° WNW 16:29:22 10° NNE daylight
12 Mar - 05:18:47 10° NE 05:20:36 12° ENE 05:22:38 10° E visible
12 Mar - 06:58:31 10° NW 07:03:28 65° WSW 07:08:00 10° SSE daylight
12 Mar - 15:46:25 10° SSW 15:50:50 62° ESE 15:55:33 10° NE daylight
12 Mar - 17:31:49 10° W 17:33:40 12° WNW 17:35:17 10° NW daylight
13 Mar - 06:24:43 10° NNW 06:29:43 82° ENE 06:34:18 10° SSE visible
13 Mar - 08:11:34 10° WSW 08:13:28 12° SW 08:15:07 10° SSW daylight
13 Mar - 15:12:51 10° SSW 15:17:03 39° ESE 15:21:30 10° NE daylight
13 Mar - 16:56:44 10° WSW 17:00:00 19° WNW 17:03:18 10° NNW daylight
14 Mar - 05:51:10 10° N 05:56:00 52° ENE 06:00:29 10° SE visible
14 Mar - 07:36:14 10° W 07:39:27 17° SW 07:42:25 10° S daylight
14 Mar - 14:39:25 10° S 14:43:11 27° SE 14:47:12 10° ENE daylight
14 Mar - 16:22:23 10° SW 16:26:21 29° WNW 16:30:29 10° N daylight
15 Mar - 05:17:52 10° N 05:22:18 33° ENE 05:26:28 10° SE visible
15 Mar - 07:01:31 10° WNW 07:05:31 25° SW 07:09:15 10° S daylight
15 Mar - 14:06:11 10° S 14:09:15 18° SE 14:12:33 10° E daylight
15 Mar - 15:48:19 10° SW 15:52:39 46° WNW 15:57:16 10° N daylight
